Location: Contre
(49.7477°N, 2.0963°E)
Time: 00:10:07
(UTC+00:00)

Envisat - Pass Details

Date: 05 March 2024
Orbit: 762 x 764 km, 98.3° (Epoch: 12 April)

Event Time Altitude Azimuth Distance (km) Brightness Sun altitude
Rises 02:49:49 0° 19° (NNE) 3,242 7.0 -33.9°
Reaches altitude 10° 02:52:15 10° 26° (NNE) 2,311 6.1 -33.6°
Enters shadow 02:56:21 40° 75° (ENE) 1,123 4.1 -33.1°
